Flag for Czech Republic Weather past 2 weeks in Liberec, Czech Republic

Now
68 °F

Mild.


Feels Like: 68 °F
Forecast: 62 / 78 °F
Wind: 5 mph from Southeast

Location: Liberec

Current Time: Aug 28, 2015 at 4:26:57 AM

Latest Report: Aug 28, 2015 at 3:00 AM


Visibility: 7 mi

Pressure: 29.88 "Hg

Humidity: 75%

Dew point: 59 °F

Location of LiberecLocation

Historic Weather in Liberec — Graph

°F

Liberec temperature yesterday

Maximum temperature yesterday: 80 °F (at 5:00 PM)
Minimum temperature yesterday: 60 °F (at 6:00 AM)
Average temperature yesterday: 70 °F

Past Weeks' High & Low Weather Summary

 TemperatureHumidityPressure
High92 °F (Aug 14, 5:00 PM)98% (Aug 17, 1:00 AM)30.32 "Hg (Aug 17, 1:00 AM)
Low46 °F (Aug 23, 5:00 AM)25% (Aug 14, 5:00 PM)29.66 "Hg (Aug 14, 7:00 PM)
Average66 °F67%29.97 "Hg
* Reported Aug 13 3:00 AM — Aug 28 3:00 AM, Liberec, Weather by CustomWeather, © 2015

Note: Actual official high and low records may vary slightly from our data, if they occured in-between our weather recording intervals... More about our weather records

Advertising

Liberec weather history for previous 24 hours

 ConditionsComfort  
Time TempWeatherWind HumidityBarometerVisibility
3:00 AM
Fri, Aug 28
68 °FMild.5 mph75%29.88 "Hg7 mi
2:00 AM68 °FPassing clouds.2 mph72%29.88 "Hg2 mi
1:00 AM69 °FMild.5 mph68%29.88 "Hg12 mi
10:00 PM
Thu, Aug 27
72 °FPassing clouds.3 mph53%29.90 "Hg16 mi
9:00 PM73 °FPassing clouds.3 mph49%29.88 "Hg19 mi
8:00 PM75 °FPassing clouds.5 mph43%29.87 "Hg22 mi
6:00 PM78 °FPleasantly warm.3 mph35%29.89 "Hg12 mi
5:00 PM80 °FPartly sunny.5 mph34%29.90 "Hg25 mi
4:00 PM79 °FPartly sunny.5 mph37%29.92 "Hg25 mi
3:00 PM79 °FPartly sunny.6 mph37%29.92 "Hg25 mi
2:00 PM78 °FPartly sunny.3 mph38%29.93 "Hg25 mi
1:00 PM77 °FPartly sunny.5 mph39%29.94 "Hg25 mi
12:00 PM74 °FPartly sunny.6 mph45%29.96 "Hg25 mi
11:00 AM72 °FPartly sunny.5 mph47%29.96 "Hg25 mi
10:00 AM70 °FPartly sunny.5 mph47%29.98 "Hg25 mi
9:00 AM68 °FPartly sunny.5 mph49%29.98 "Hg25 mi
8:00 AM65 °FScattered clouds.5 mph52%29.98 "Hg25 mi
7:00 AM62 °FRefreshingly cool.5 mph58%29.98 "Hg12 mi
6:00 AM60 °FCool.3 mph62%30.00 "Hg12 mi
4:00 AM61 °FRefreshingly cool.3 mph60%30.01 "Hg12 mi
Weather by CustomWeather, © 2015

See weather overviewHow to use our weather pages